DELTA 1 DEB, 4499

Orbit data source: Space-Track

DELTA 1 DEB, 4499 is space debris in SSO originally from a launch on Fri, 16 Aug 1968 UTC launched from the Air Force Western Test Range (AFWTR). Debris objects in space refer to the collection of defunct objects orbiting the Earth. Examples of debris include non-operational satellites, rocket bodies, and fragments generated from explosions, collisions, or faulty payload assembly.

Loading next visibility...
DELTA 1 DEB details
Identifier
4499, 1968-069G
Orbit
SSO
Last TLE update1 day ago
Origin
Flag of USGSFC (US)
ManufacturerUnknown
MissionSpacecraft
Bus & MotorUnknown
MassUnknown
Launch date (UTC)
1968-08-16 (56 years ago)
Launch vehicleUnknown
Launch site
Air Force Western Test Range (AFWTR)
Object type
Payload
Rocket body
Debris
Shape & HBRUnknown
Radar Cross SectionSmall (<0.1 m²)

Expand to show TLE details & history

TLE from 1 day ago
0 DELTA 1 DEB
1 04499U 68069G   24355.58637964 -.00000036  00000-0  39984-4 0  9999
2 04499 101.3894  20.6984 0028105 338.1431 176.6843 12.51280070575268
Epoch: 2024-12-20T14:04Z
Definitive object data (Epoch: 2024-12-20T14:04:23.2Z)
Latitude24.65201°
Longitude-94.76956°
Altitude1,483.836 km
Speed7.114 km/s
True Right ascension13h 43m 54s
True Declination24° 32' 02"
Sunlit
Object was in daylight at TLE epoch
Visualization TLE readout
Latitude10.37507°
Longitude78.88777°
Altitude1,442.841 km
Speed7.149 km/s
Apparent Right ascension02h 02m 36s
Apparent Declination-12° 19' 12"
Sunlit
Object is in daylight
Visualization observer readout
Local Sidereal Time15:12:28
Azimuth34.026° NE
Elevation-58.395°
Doppler factor1
Orbital elements
Apogee altitude1,478.689 km
Perigee altitude1,434.65 km
Semi-major axis7,834.807 km
Eccentricity0.0028105
Inclination101.3894°
RAAN20.6984°
Arg. of periapsis338.1431°
True anomaly176.70286°
Mean anomaly176.6843°
Eccentric anomaly176.69359°
Mean motion3.12969 °/min
BSTAR0.000039984
Orbital period115.03 mins
Loading maneuver chart data...
Loading historical data...
Loading historical data...
Loading historical data...
Loading historical data...
Loading historical data...
Loading historical data...
Loading historical data...

DELTA 1 DEB Visibility forecast

Observer location: undefined°, undefined

Span
Click to sort rows by Start time (UTC) header in descending order
Start Az.
Max El. time (UTC)
Max El. Az.
Max El.
End time (UTC)
End Az.
11 mins2024-12-21 16:43:03.681Z348.727° N2024-12-21 16:48:03.681Z307.883° NW21.769°2024-12-21 16:54:03.681Z260.069° W
11 mins2024-12-21 23:58:03.681Z96.67° ESE2024-12-22 00:03:03.681Z54.364° ENE22.022°2024-12-22 00:09:03.681Z6.689° NNE
15 mins2024-12-22 01:48:03.681Z166.467° S2024-12-22 01:55:03.681Z240.413° WSW44.592°2024-12-22 02:03:03.681Z340.934° N
6 mins2024-12-22 03:47:03.681Z253.248° W2024-12-22 03:49:03.681Z268.783° W13.871°2024-12-22 03:53:03.681Z298.866° NW
14 mins2024-12-22 13:52:03.681Z36.896° NE2024-12-22 13:58:03.681Z90.901° ESE31.508°2024-12-22 14:06:03.681Z163.387° S
14 mins2024-12-22 15:45:03.681Z3.144° NNE2024-12-22 15:52:03.681Z287.477° WNW36.92°2024-12-22 15:59:03.681Z226.501° WSW
|